Portage Invitational 2018 vs Portage Invitational 2017

Aggregate Data Points
Difference This Meet That Meet
Overall Athletes +636 2179 1543
Overall Average +1:07.29 21:29.52 20:22.23
1st-10th Place -11.88 15:30.97 15:42.85
1st-25th Place -8.40 15:51.96 16:00.36
1st-50th Place -7.39 16:09.41 16:16.80
1st-100th Place -5.23 16:29.86 16:35.09
Common Athletes -- -- 564
Ran Faster 170 367 197
Ran Season Best -3 13 16
Average Time -12.48 19:55.03 20:07.51
Median Time -15.50 19:40.10 19:55.60
Middle 80% Times -14.72 19:42.02 19:56.74
Top 10% Times -25.24 16:26.01 16:51.25
Top 25% Times -25.20 17:00.57 17:25.77
Top 50% Times -22.40 17:53.34 18:15.74
Bottom 50% Times -2.56 21:56.71 21:59.27
Bottom 25% Times +8.10 23:25.29 23:17.19
Bottom 10% Times +19.28 25:14.86 24:55.59
Average Difference -12.48 -- --
Median Difference +59.40 -- --
Middle 80% Difference -15.81 -- --
Top 10% Difference -18.25 -- --
Top 50% Difference -21.04 -- --
Top 25% Difference -22.32 -- --
Top 50% Difference -21.04 -- --
Bottom 50% Difference -3.92 -- --
Bottom 25% Difference +8.15 -- --
Bottom 10% Difference +23.56 -- --

Performances of Common Athletes
Athlete Team Difference This Meet That Meet
Nick Foster Ann Arbor Pioneer -9.00 15:12.80 15:21.80
Kyle Johnston Lexington -41.70 15:23.80 16:05.50
Mhalicki Bronson Defiance -41.30 15:30.80 16:12.10
John Florence Ann Arbor Pioneer -53.90 15:39.60 16:33.50
Sam Martens Holland -33.10 15:41.80 16:14.90
Corey Gorgas Saugatuck -17.20 15:44.90 16:02.10
Conner Johanssen Hilliard Davidson -41.30 15:47.30 16:28.60
Nathan Walker Fremont -46.20 15:49.70 16:35.90
Nathan Larson Dexter -1:29.90 16:00.30 17:30.20
Gezahegn Starr Parma Western -41.60 16:04.80 16:46.40
Owen Rennich Ann Arbor Pioneer -1:43.70 16:05.00 17:48.70
Carson Rabbitt Chelsea -39.30 16:05.00 16:44.30
Koby Fraaza Richland Gull Lake -48.00 16:07.20 16:55.20
Jesse Edelstein Ann Arbor Skyline -31.80 16:09.50 16:41.30
Ben Hylen Spring Lake -1:11.60 16:09.60 17:21.20
Ethan Senti Zeeland West -1:03.60 16:11.40 17:15.00
Sam Sharnas Holland Black River -1:19.50 16:11.60 17:31.10
Thomas Westrick Grand Rapids Forest Hills Eastern -24.80 16:14.70 16:39.50
Colten Covington Grant -26.70 16:15.50 16:42.20
Foster Thorburn Chelsea -1:17.50 16:18.30 17:35.80
Simon Pfeiffer Saline -32.00 16:20.20 16:52.20
William Minnette Saline -1:05.50 16:20.50 17:26.00
Luke Daniel Portage Northern -17.40 16:22.40 16:39.80
Nik Pettinga Saugatuck -7.10 16:22.70 16:29.80
Jevin Nishioka Saline +21.30 16:44.10 16:22.80
Will Peters Lansing Catholic -24.80 16:27.60 16:52.40
Cole Jensen Montague -6.80 16:29.00 16:35.80
Shane Achterhof Walkerville +5.30 16:34.50 16:29.20
Dominic Weatherwax Grand Haven -1:00.50 16:29.40 17:29.90
Andrew Periard East Grand Rapids -9.20 16:29.40 16:38.60
Ethan Mielock Ann Arbor Pioneer +35.50 17:07.60 16:32.10
Aiden McLaughlin Morley Stanwood +21.10 16:53.60 16:32.50
Todd Henley Hopkins -36.90 16:34.40 17:11.30
Ashton Sheline Berrien Springs -16.30 16:35.20 16:51.50
Andrew Hylen Spring Lake -10.60 16:35.80 16:46.40
Stanley Elder Grand Ledge -45.70 16:38.00 17:23.70
Alex Enns Hart -19.50 16:40.40 16:59.90
Cole Truszkowski Traverse City Central -37.00 16:41.00 17:18.00
Nate Vruggink Hudsonville -12.60 16:41.00 16:53.60
Ben Paige Fremont -1:13.10 16:41.30 17:54.40
Jack Grimm Rockford -5.20 16:41.50 16:46.70
Carson Laney Jonesville +15.20 16:58.00 16:42.80
Max Rathburn Portage Northern +9.30 16:54.20 16:44.90
Andrew Ireland Grand Haven -14.90 16:45.30 17:00.20
Brendan Deneen Fruitport -28.50 16:45.50 17:14.00
Will Scott Chelsea -1:31.60 16:46.80 18:18.40
Tyler Kintigh Benzie Central -10.60 16:47.20 16:57.80
Jude Parks Rockford -48.20 16:48.30 17:36.50
Cooper Clark Stevensville-Lakeshore -1:12.90 16:49.10 18:02.00
Nick Mckenzie Dexter -1:28.90 16:49.80 18:18.70
Lucas Betzoldt Dexter -26.00 16:51.40 17:17.40
Ethan Wilstermann Grand Rapids Christian -2:08.20 16:51.60 18:59.80
Zach Gerber Traverse City Central -43.10 16:51.70 17:34.80
Keegan Oldani Ann Arbor Skyline -35.80 16:52.70 17:28.50
Eli Meder Lansing Catholic -7.80 16:54.80 17:02.60
Nick Dennison Muskegon Mona Shores -7.50 16:56.40 17:03.90
Eric Warriner Lansing Catholic -5.00 16:56.50 17:01.50
Zach Wright Potterville -6.60 16:57.70 17:04.30
Aidan Makled Hastings -53.90 16:58.10 17:52.00
Cole Rowden Grand Haven -22.20 16:58.70 17:20.90
Zach Theeuwes Grandville -31.10 16:58.90 17:30.00
Brett Carlisle Marshall -50.70 16:59.20 17:49.90
Christian Voetberg Grand Rapids Christian -10.40 16:59.70 17:10.10
Matthew Converse Zeeland West -1.50 17:00.30 17:01.80
Xavier Gallo Hilliard Davidson -47.40 17:00.60 17:48.00
Jon Wildey Fruitport -1:04.50 17:01.40 18:05.90
Nick Sauvey Hilliard Davidson -37.00 17:01.50 17:38.50
Jacob Deboer Holland Christian -1:14.40 17:01.50 18:15.90
Chris Jenkins Grandville Calvin Christian +38.30 17:40.30 17:02.00
Micah Vanderkooi Grand Rapids South Christian -7.20 17:02.10 17:09.30
Zander Hartsuff Chelsea -1:03.20 17:02.20 18:05.40
Jack Luymes Grand Rapids Christian -35.10 17:03.10 17:38.20
Seth Schafer Shepherd -1:03.00 17:04.20 18:07.20
Clay Sturts Lexington -1:06.60 17:04.90 18:11.50
Alvaro Martinez Bangor -20.40 17:05.20 17:25.60
Dane Nestle Shepherd +1.90 17:08.60 17:06.70
Malachi Mills Grand Rapids West Catholic +29.90 17:36.90 17:07.00
Nick Errer Hartland -29.90 17:08.50 17:38.40
Paul Sutton Ann Arbor Pioneer -25.40 17:09.80 17:35.20
Noah Sgambellone Lexington -29.90 17:09.90 17:39.80
Daniel Evans Ann Arbor Skyline +2.40 17:12.90 17:10.50
Schaeffer Ailes Zeeland East -30.50 17:10.70 17:41.20
Joseph Norwood Chelsea -41.80 17:10.70 17:52.50
Pedro Roman Benzie Central -25.70 17:12.70 17:38.40
Craig Latty Monroe +1:06.30 18:19.40 17:13.10
Joe Delgado Traverse City Central -25.60 17:14.50 17:40.10
Jack Zuidema Muskegon Western Michigan Christian -1:14.90 17:16.50 18:31.40
Kenny Lashaway Ann Arbor Gabriel Richard -2:10.40 17:16.70 19:27.10
Colin Moats Defiance -3.70 17:17.10 17:20.80
Elijah Becker East Grand Rapids -1:06.80 17:17.50 18:24.30
Andrew Whitney Hart +11.70 17:29.40 17:17.70
Evan Griffiths Berrien Springs +0.60 17:19.30 17:18.70
Spencer Cole Grant +5.10 17:25.00 17:19.90
Christian VandeGut Hudsonville -19.50 17:20.00 17:39.50
Duncan Taber Chagrin Falls -19.20 17:20.40 17:39.60
Hunter Tubbs Hart -6.50 17:21.20 17:27.70
Chad Mccarthy Monroe +10.60 17:32.10 17:21.50
Jacob Majoor Rockford -52.00 17:21.50 18:13.50
Seth Read Dexter -43.20 17:21.90 18:05.10
Carter Sheline Berrien Springs -11.90 17:22.10 17:34.00
David Evans Ann Arbor Skyline -37.40 17:22.30 17:59.70
Dustin Dapprich Milan -5.70 17:23.10 17:28.80
David Jaimes Grant +10.00 17:33.40 17:23.40
Sean Coney East Grand Rapids +40.80 18:04.50 17:23.70
Caleb Riddering Grandville Calvin Christian -1:07.00 17:24.00 18:31.00
Tj Moore Mt. Pleasant Sacred Heart -1.70 17:24.20 17:25.90
Luke Witvliet Grandville Calvin Christian -1:48.70 17:25.90 19:14.60
Zakk Hensley Ionia -54.10 17:26.20 18:20.30
Ross Mcneel Shepherd -42.10 17:27.00 18:09.10
Gus Hinch Watervliet -35.80 17:27.00 18:02.80
Kolbe Mills Grand Rapids West Catholic -55.90 17:27.60 18:23.50
Josh Lynch Mt. Pleasant Sacred Heart -47.40 17:27.80 18:15.20
Zach Bode McBain -28.60 17:28.10 17:56.70
Ryan Brummel Newaygo -7.00 17:29.40 17:36.40
Luke Blesy Bridgman -22.50 17:30.20 17:52.70
Noah Barnes Benzie Central -57.60 17:30.80 18:28.40
Ethan Beres Hartland -35.10 17:31.00 18:06.10
Christofer Clisham Saline -1:00.70 17:31.90 18:32.60
Alex Russo Kent City -32.20 17:31.90 18:04.10
Jack Pennewell St. Clair +51.60 18:24.10 17:32.50
Ericka Vanderlende Rockford -18.10 17:33.10 17:51.20
Tyler Brunner Portage Central +38.90 18:12.70 17:33.80
Colin Chevalier Temperance-Bedford +4.00 17:38.70 17:34.70
Matthew Nowak Mt. Pleasant Sacred Heart -41.80 17:34.90 18:16.70
Dan Raush Hopkins -34.50 17:35.10 18:09.60
Mitchell Montgomery Hilliard Davidson -36.40 17:35.30 18:11.70
Adelyn Ackley Hart -9.40 17:35.40 17:44.80
Casey Carew Kent City +4.60 17:40.10 17:35.50
Graham Kort Grand Rapids Christian -1:03.80 17:35.50 18:39.30
Raymond Hill St. Clair -25.30 17:35.60 18:00.90
Austin Wilson West Michigan Aviation Academy -49.00 17:36.20 18:25.20
Colltion Vine Breckenridge -1:27.70 17:37.50 19:05.20
Matt Lester Delton Kellogg +5.80 17:44.10 17:38.30
Xavier Addison Mt. Pleasant Sacred Heart +24.50 18:03.20 17:38.70
Jake Lathrop Kingsley -29.00 17:38.80 18:07.80
Aidan Jones Holland Black River +26.70 18:06.00 17:39.30
Dan Hardesty Big Rapids +31.10 18:14.90 17:43.80
Joshua Zerfas Fremont -2.30 17:44.00 17:46.30
Mark Crossman Benzie Central -1:38.40 17:44.40 19:22.80
Mason Hammond Shepherd +0.50 17:46.30 17:45.80
Luke Tarr Potterville +0.40 17:46.60 17:46.20
Matthew Bau Kalamazoo Central -1:01.90 17:46.30 18:48.20
Charlie Newburry Mendon -1:33.80 17:47.70 19:21.50
Matthew Vanderwall Spring Lake +6.90 17:55.20 17:48.30
Nathan Johnson Fremont -1:26.40 17:48.30 19:14.70
Nathan Conkel Hudsonville -23.20 17:49.60 18:12.80
Gavin Weber Leslie -35.40 17:50.20 18:25.60
Jacob Andrews Traverse City St. Francis +9.90 18:02.30 17:52.40
Justus Holben DeWitt -22.30 17:52.70 18:15.00
Nathan Peabody Benzie Central +1:14.00 19:07.30 17:53.30
James Bigard Shepherd +1:14.80 19:09.10 17:54.30
Shaun Happy Chelsea -33.10 17:54.30 18:27.40
Dillon Brown Walkerville +6.40 18:01.50 17:55.10
Elijah Beson Bay City Western -1:04.00 17:55.10 18:59.10
Logan Foerch Caledonia -1:08.70 17:55.10 19:03.80
Carter Finch Bangor +36.00 18:31.40 17:55.40
Roy Bowman Jonesville -15.50 17:55.60 18:11.10
Andrew Moyer St. Joseph -8.40 17:55.70 18:04.10
Ben Moeggenberg Shepherd -20.90 17:56.20 18:17.10
Ryan Chase Portage Central -8.80 17:58.50 18:07.30
Jerad Berkenpas Grand Rapids South Christian -28.00 17:58.50 18:26.50
Taelor Eernisse Parma Western -27.30 17:58.70 18:26.00
Ryan Bishop Benzie Central -21.50 17:59.80 18:21.30
Ben Everse Zeeland East +32.70 18:32.60 17:59.90
Anders Bogard Kalamazoo Christian +25.70 18:27.20 18:01.50
Amber Gall Shepherd -48.30 18:02.70 18:51.00
Dilon Donihue Hillsdale Academy -58.10 18:02.80 19:00.90
Eric Nordquist Parchment +19.60 18:23.20 18:03.60
Zach Bitely Hart -27.10 18:04.60 18:31.70
Eli Bradley Grant -15.10 18:04.80 18:19.90
Alex Sheehy Walkerville -1:54.60 18:06.80 20:01.40
Gabe Weber Leslie +21.10 18:28.10 18:07.00
Hayden James Jonesville -7.50 18:07.90 18:15.40
Ray Bartlett Saugatuck -1.50 18:09.60 18:11.10
Brody Ankoviak Sanford-Meridian +4.40 18:14.30 18:09.90
Peyton Witt Portage Northern +44.20 18:55.40 18:11.20
Isaiah Gavaldon Traverse City Central +9.30 18:20.50 18:11.20
Paul Radulescu Marshall -38.70 18:11.30 18:50.00
Collin Bishop Creative Technical Academy -4.30 18:11.60 18:15.90
Derek Sall Grandville Calvin Christian -20.80 18:12.00 18:32.80
Mitchell Davidson Shepherd -1:36.00 18:13.10 19:49.10
Gage White Sanford-Meridian +36.30 18:49.90 18:13.60
Kyle Miedema Kalamazoo Christian -50.60 18:14.30 19:04.90
Connor Callahan Grand Rapids Forest Hills Northern -37.10 18:15.00 18:52.10
Lauren Cleary Lansing Catholic +5.00 18:20.80 18:15.80
Carter Thelen Traverse City St. Francis -20.50 18:16.40 18:36.90
Ben Garretson Muskegon Western Michigan Christian -23.00 18:17.40 18:40.40
Jacob Malocha Vicksburg -1:37.20 18:18.60 19:55.80
Yasmine Mansi Northville -17.00 18:18.70 18:35.70
Chance Posteon Benzie Central +1:05.80 19:25.70 18:19.90
Lance Jourdan Grandville Calvin Christian -1:02.80 18:19.90 19:22.70
Luke Caswell East Grand Rapids -22.00 18:21.80 18:43.80
Colton Chovanec Breckenridge -18.00 18:23.10 18:41.10
Vincent Kenyon Ionia +18.90 18:42.10 18:23.20
Collin Carter Manton +45.00 19:08.60 18:23.60
Jordan Reynolds Potterville -5.40 18:25.60 18:31.00
John O'connor Hillsdale Academy -44.40 18:25.70 19:10.10
Gabby Hentemann Grand Haven -13.80 18:26.30 18:40.10
Cole Lloyd Zeeland East -53.90 18:28.40 19:22.30
Connor Vanderwilt Grant +45.70 19:15.60 18:29.90
Wesley Vanpoortfliet Benzie Central -1:03.00 18:30.20 19:33.20
Cy Frankhouser Fremont +11.20 18:41.70 18:30.50
Ruben Pung Zeeland West +26.90 18:58.30 18:31.40
Luke Ruiter Holland Black River -1:59.40 18:31.60 20:31.00
Anton Ludwig East Grand Rapids -0.80 18:31.80 18:32.60
Jimmy Alford Chelsea -32.10 18:31.80 19:03.90
Eder Lopez Blanchard Montabella +1:22.70 19:55.80 18:33.10
Ashton Gillis Breckenridge -1:00.60 18:33.50 19:34.10
Joe Shoup Constantine +1:13.40 19:47.00 18:33.60
Tyler Iverson Benzie Central +7.30 18:41.20 18:33.90
Jack Saxton Lansing Catholic -26.20 18:34.00 19:00.20
Anson Alvarez Hillsdale Academy +8.70 18:43.50 18:34.80
Klaudia O'Malley McBain -56.50 18:35.10 19:31.60
Alex Leonard Kalamazoo Hackett +1:14.60 19:49.80 18:35.20
Colin Steinberger Mendon +1:45.60 20:22.60 18:37.00
Noelle Adriaens Pinckney -1:00.20 18:38.60 19:38.80
Tristan Lee Blanchard Montabella +43.50 19:22.20 18:38.70
Hunter Bentley Bear Lake -55.00 18:40.90 19:35.90
Connor Krueger Hartland -1.70 18:42.70 18:44.40
Trent Herrera Kentwood Grand River Preparatory -1:11.30 18:42.90 19:54.20
Luke Predum Mt. Pleasant Sacred Heart -31.40 18:43.10 19:14.50
Sam Offringa Kalamazoo Christian -19.90 18:43.20 19:03.10
Annie Allen Saint Joseph Academy +25.90 19:10.00 18:44.10
Joanna Halfhill Lexington -1:56.00 18:44.20 20:40.20
Connor Blesy Bridgman -38.50 18:44.30 19:22.80
Brenden Buchanan Portage Central +1:09.70 19:55.00 18:45.30
Colin Listerman Ionia -28.50 18:45.60 19:14.10
Levi Thomas Vicksburg -1:11.20 18:47.80 19:59.00
Ashlynn Nagel Bay City Western -22.80 18:48.20 19:11.00
Lauren Freeland Kent City +5.40 18:54.30 18:48.90
Lane Everett St. Joseph +22.20 19:11.80 18:49.60
Colin Gilmour Portage Northern +6.80 18:59.30 18:52.50
Luke Lasky Leslie -22.60 18:52.70 19:15.30
Aaron Baumann Zeeland East -43.70 18:53.20 19:36.90
Kade Van Niel Watervliet -1:03.30 18:53.70 19:57.00
Nathaniel Alpers Richland Gull Lake -4.20 18:55.20 18:59.40
Reece Welch Grant -1:41.10 18:55.90 20:37.00
Jackson Casper Leslie -39.60 18:57.80 19:37.40
Anna Vogel Ann Arbor Pioneer -1:06.90 18:58.20 20:05.10
Savannah Ackley Hart +15.80 19:14.60 18:58.80
Anderson Strand Shepherd -26.30 18:59.50 19:25.80
Jami Reed Grand Rapids Forest Hills Eastern -2:21.10 18:59.90 21:21.00
Tyler Gould Muskegon Western Michigan Christian -33.70 19:00.50 19:34.20
Tyler Munch Spring Lake -39.50 19:00.60 19:40.10
Jarrett Buckner Bear Lake -12.60 19:01.80 19:14.40
Samantha Tran Grand Rapids Forest Hills Northern -28.40 19:02.50 19:30.90
Vivi Eddings Pinckney -48.70 19:02.90 19:51.60
Rece Schlukebir Hart -17.30 19:03.80 19:21.10
Jacob Taber Benzie Central -2:03.10 19:05.60 21:08.70
Leah Socks Traverse City Central -0.70 19:06.60 19:07.30
Emma Everhart - Deckard Rockford -39.20 19:07.20 19:46.40
Seanna Schmidt Milan -43.00 19:08.00 19:51.00
Henry Richardson Breckenridge -20.90 19:08.30 19:29.20
Scout Nelson Mt. Pleasant Sacred Heart -18.80 19:08.50 19:27.30
Sophia Dipiazza Allendale -1:30.10 19:09.00 20:39.10
Isabella Lindsay North Muskegon +59.40 20:09.30 19:09.90
Hannah Smith Traverse City West -26.60 19:12.20 19:38.80
Dakata Ames Mendon -17.30 19:13.10 19:30.40
Daniel Quist McBain +38.10 19:51.90 19:13.80
Jamie Terrill Parchment -1:02.50 19:15.60 20:18.10
Nick Jerman Shepherd -24.10 19:15.80 19:39.90
Kayla Fortino Saline -2.30 19:15.80 19:18.10
Paige Johnston Benzie Central +1:14.90 20:31.00 19:16.10
Joe Ghezzi Ann Arbor Gabriel Richard -43.40 19:16.10 19:59.50
Ashley Shipps DeWitt -29.70 19:18.00 19:47.70
Taylor Conner Saugatuck -14.30 19:18.40 19:32.70
Meghan Langworthy Big Rapids -11.40 19:18.70 19:30.10
Gideon Howard Shepherd -16.90 19:18.80 19:35.70
Sydney Nesbitt Bay City Western -50.20 19:19.60 20:09.80
Shayna Altvater Holland -1:00.10 19:20.30 20:20.40
Hannah Bodine East Grand Rapids -8.30 19:20.30 19:28.60
Lindsey Peters Caledonia -1:31.90 19:22.40 20:54.30
Carina Weaver Lexington -52.10 19:23.10 20:15.20
Logan Payne Three Oaks-River Valley -30.80 19:23.10 19:53.90
Katelyn Duffing Traverse City St. Francis -14.60 19:23.30 19:37.90
Riley Ford Marlette +25.40 19:49.40 19:24.00
Audrey Whiteside East Grand Rapids -20.60 19:25.40 19:46.00
Kathy Potter Coldwater -1:02.50 19:25.70 20:28.20
Kaylee Thompson Niles -1:16.80 19:26.20 20:43.00
Michelle Kuipers Holland Christian -27.10 19:26.60 19:53.70
Thea Johnson Saugatuck +18.00 19:45.10 19:27.10
Jake Radtke Breckenridge +1:26.40 20:56.20 19:29.80
Elka Machan Coldwater -1:28.10 19:30.00 20:58.10
Lynae Ackley Hart -50.00 19:30.30 20:20.30
Kori Baumann Allendale -27.00 19:30.60 19:57.60
Halle Hamilton Lexington -14.10 19:32.80 19:46.90
Layla Martini Kent City +15.50 19:48.80 19:33.30
Courtney Jarema Pinckney -21.00 19:33.90 19:54.90
Mackenzie Stitt Hart -8.00 19:34.80 19:42.80
Jenna Picard Bay City Western -1:20.80 19:35.20 20:56.00
Dawson Grizzle Delton Kellogg -11.60 19:35.40 19:47.00
Sheila Witvliet Grandville Calvin Christian +29.50 20:05.40 19:35.90
Margaret Coney East Grand Rapids -37.20 19:37.60 20:14.80
Natalie Newcombe Remus Chippewa Hills -1:00.10 19:37.70 20:37.80
Natalie Martinson Saugatuck +28.40 20:08.10 19:39.70
Jacob Dudley Mendon -22.20 19:39.80 20:02.00
Avery Mclean Traverse City Central -11.80 19:40.10 19:51.90
Madde Skeel Shepherd +25.80 20:06.10 19:40.30
Luca Leffew Bear Lake +29.20 20:11.10 19:41.90
Matthew Hanks Watervliet -1:06.60 19:42.00 20:48.60
Alexander Henrys Potterville -46.00 19:42.20 20:28.20
Desiree McConnell Mt. Pleasant Sacred Heart +34.40 20:17.00 19:42.60
Kaitlyn Hynes DeWitt -1:35.50 19:43.00 21:18.50
Noelle Fink Manistee +2:31.40 22:14.60 19:43.20
Hannah Brock Big Rapids -24.00 19:44.00 20:08.00
Emily Unger Montague +22.60 20:07.10 19:44.50
Ben Jenkins Grandville Calvin Christian -36.70 19:45.00 20:21.70
Elsa Rusthoven DeWitt -2:28.30 19:45.10 22:13.40
Emily Gordon Northville -11.10 19:45.60 19:56.70
Brenna Aerts Hart +27.00 20:12.80 19:45.80
Abby Buitenhuis Grand Haven -1:03.90 19:46.60 20:50.50
Kaitlin Murray Dearborn Divine Child -28.10 19:47.60 20:15.70
Joel Carlson Potterville -1:13.70 19:47.70 21:01.40
Nicole Dillmann Saline -42.10 19:47.90 20:30.00
Catherine Coffey Chagrin Falls +6.70 19:55.40 19:48.70
Laura O'brien Ann Arbor Skyline -50.60 19:49.10 20:39.70
Landyn Howell Grand Rapids Forest Hills Eastern -1:04.00 19:49.20 20:53.20
Catherine Kortman Grandville Calvin Christian -1:04.80 19:50.00 20:54.80
Garrett Blacken Parchment +40.30 20:30.60 19:50.30
Noah Cantu Hart +45.50 20:36.80 19:51.30
Skylar Thompson Concord +4.70 19:56.30 19:51.60
Lauren Macdonald Mt. Pleasant Sacred Heart +45.10 20:37.60 19:52.50
Paige Swiriduk Manton +19.00 20:14.60 19:55.60
Kailee Sandoval Grass Lake -41.50 19:55.70 20:37.20
Allison Rand Jackson Lumen Christi +24.40 20:20.90 19:56.50
Nicole Marco Grand Rapids Forest Hills Central -55.50 19:57.50 20:53.00
Erin Moore Berrien Springs -17.80 19:57.70 20:15.50
Kayla Eklund Richland Gull Lake -42.00 19:57.80 20:39.80
Hayden Pell Mason +1:48.50 21:46.60 19:58.10
Spencer Noll Bridgman +1:09.80 21:07.90 19:58.10
Dreea Atchison Morley Stanwood +4.40 20:03.30 19:58.90
Jackson Hambright Vicksburg -21.00 19:59.50 20:20.50
Whitney Currie Grand Rapids Forest Hills Central -30.90 19:59.80 20:30.70
Alex Isbrecht Watervliet +34.40 20:35.10 20:00.70
Erin Hegarty Dearborn Divine Child +1:00.20 21:02.60 20:02.40
Ethan Rupp Parchment +57.10 21:00.80 20:03.70
Olivia Quillan Grandville Calvin Christian -31.20 20:04.20 20:35.40
Dylan Bates Benzie Central +8.90 20:13.80 20:04.90
Sofia Perez DeWitt -1:21.40 20:05.40 21:26.80
Mia Phillips Holland Black River +7.40 20:13.40 20:06.00
Aaron Conger Walkerville +25.50 20:31.80 20:06.30
Jackson Arkles Leslie -31.60 20:07.80 20:39.40
Keira Courtney Northville +22.10 20:30.40 20:08.30
Katie Hessler East Grand Rapids -50.60 20:08.70 20:59.30
Kallie Harrison Bloomingdale +24.70 20:35.20 20:10.50
Haley Hegenauer Shepherd -54.60 20:10.60 21:05.20
Mallory Dawes Ann Arbor Pioneer +6.40 20:17.30 20:10.90
Renea Kutcha Jackson Lumen Christi -19.40 20:11.70 20:31.10
Trevor Eisenlohr Bear Lake -48.00 20:11.80 20:59.80
Caleigh Winters Potterville -2:07.40 20:12.10 22:19.50
Lexie Allshouse Rockford -1:07.40 20:12.80 21:20.20
Claire Ackerman Traverse City West +48.60 21:02.10 20:13.50
Deziree Shaw Remus Chippewa Hills -44.10 20:14.60 20:58.70
Morgan Lyon Traverse City West +26.30 20:41.10 20:14.80
Jasmine Fisher Hopkins +25.70 20:41.90 20:16.20
Emily Macina Zeeland East -47.90 20:16.60 21:04.50
Hannah Clark Chagrin Falls +25.70 20:42.70 20:17.00
Sam Kokmeyer Parchment -1:19.50 20:17.60 21:37.10
Jodi Jenkins Grandville Calvin Christian +1:02.10 21:19.80 20:17.70
Olivia Harp Northville +1:09.10 21:27.70 20:18.60
Libby Gorman Traverse City St. Francis -17.50 20:19.40 20:36.90
Ellie Voetberg Portage Central -18.60 20:22.20 20:40.80
Sierra Pallin Benzie Central +3.10 20:25.90 20:22.80
Lauryn Coleman Galesburg-Augusta -14.40 20:23.20 20:37.60
Tai Babinec Bear Lake +14.80 20:38.20 20:23.40
Maggie Cooper Spring Lake -51.60 20:23.80 21:15.40
Josh Kelley Parchment +10.00 20:33.90 20:23.90
Alison Hankins Traverse City Central -37.40 20:24.00 21:01.40
Kendra Fowler Fremont -2:55.20 20:24.40 23:19.60
Avery Schenk Zeeland West -58.40 20:26.40 21:24.80
Josie Aardema Muskegon Western Michigan Christian +1:09.10 21:36.10 20:27.00
Carly Michele Grand Rapids Christian +17.70 20:46.50 20:28.80
Emily Monroe Milan -12.10 20:29.50 20:41.60
Jesse Geary Manton -57.30 20:30.20 21:27.50
Taylor Visscher Caledonia -11.00 20:30.50 20:41.50
Ruby Strahan Ludington +49.30 21:20.00 20:30.70
Nelly Gonzalez Bloomingdale +3.00 20:34.40 20:31.40
Sawyer Barton Vicksburg -55.20 20:31.60 21:26.80
Ashley Schierbeek McBain -1:22.60 20:32.30 21:54.90
Charlie Morton Mt. Pleasant Sacred Heart -16.60 20:32.80 20:49.40
Rachel Reid Lansing Catholic +25.80 20:58.80 20:33.00
Tessa Gerhardt Lexington -38.60 20:33.00 21:11.60
Zack Haan Grandville Calvin Christian +2:20.90 22:54.10 20:33.20
Haley Aho Dearborn Divine Child +17.10 20:50.40 20:33.30
Morgan Steenstra Grandville Calvin Christian -1:00.10 20:33.30 21:33.40
Alicia Estrella Grandville Calvin Christian -1:23.30 20:34.40 21:57.70
Aubree Sedore Galesburg-Augusta -9.30 20:35.00 20:44.30
Hannah Ordiway Sanford-Meridian -54.50 20:35.80 21:30.30
Anna Winkle Grand Rapids South Christian +1:01.80 21:37.90 20:36.10
Christine Scerbak Traverse City St. Francis +40.20 21:16.50 20:36.30
Sarah Lyon Battle Creek Lakeview -14.00 20:37.80 20:51.80
Austin Scharphorn Manton +17.90 20:57.50 20:39.60
Claire Parish Grand Rapids Forest Hills Eastern -41.60 20:40.00 21:21.60
Abby Ignasiak Kent City -54.20 20:40.10 21:34.30
Jacob Stevens Jackson Lumen Christi -55.10 20:41.70 21:36.80
Damien Logan Grand Rapids West Catholic -5.60 20:42.20 20:47.80
Lily Iaquaniello Dearborn Divine Child -10.90 20:42.70 20:53.60
Daniel Burris Parchment -53.00 20:44.30 21:37.30
Emma Pachay Marcellus +20.80 21:05.20 20:44.40
Schlabach Gabriella Centreville -37.20 20:44.60 21:21.80
Brendon Patmalnieks Constantine +43.70 21:29.60 20:45.90
Kayley Porter Grand Rapids Forest Hills Northern +1:46.00 22:32.30 20:46.30
Izzie Lashaway Ann Arbor Gabriel Richard +11.10 20:58.40 20:47.30
Julia Bajt Spring Lake +50.80 21:38.40 20:47.60
Kaleigh Vandewege Zeeland East -38.00 20:49.00 21:27.00
Carly Postma Caledonia +8.20 20:57.30 20:49.10
Susannah Bennett Grand Rapids Forest Hills Central +9.60 20:59.00 20:49.40
Brooke Aho Dearborn Divine Child -19.00 20:49.70 21:08.70
Isabella Schmenk Hartland -4.30 20:50.20 20:54.50
Ellen Bretzeke Benzie Central -31.80 20:50.80 21:22.60
Jaylen Schroeder Big Rapids Crossroads Charter -36.60 20:51.40 21:28.00
Madison Hammer Big Rapids +37.50 21:29.10 20:51.60
Elizabeth Gates Grant -44.70 20:51.60 21:36.30
Helena Snyder Blanchard Montabella -46.00 20:52.60 21:38.60
Karsyn Stewart Bridgman -38.00 20:54.20 21:32.20
Caroline Bodary Ann Arbor Gabriel Richard -1.40 20:55.00 20:56.40
Madeline Witvliet Grandville Calvin Christian -39.40 20:55.10 21:34.50
Kathleen Hummer Byron Center -3.10 20:56.10 20:59.20
Annie Laurenz Breckenridge +3.60 21:01.20 20:57.60
Peyton Burch Benzie Central +1:20.10 22:18.00 20:57.90
Sophia Frisbie Newaygo -9.50 20:58.30 21:07.80
Jessie Rieth Three Oaks-River Valley -3.50 20:59.20 21:02.70
Talia Wilder Caledonia +13.50 21:14.40 21:00.90
Maggie O'malley McBain +36.30 21:38.10 21:01.80
Leah Converse Fremont -2:02.50 21:01.90 23:04.40
Holli Dannenburg South Haven +2.30 21:04.50 21:02.20
Anna Fedewa Spring Lake -1:26.20 21:02.20 22:28.40
Grace Kolarik Kingsley +17.30 21:20.00 21:02.70
Ashley Avant Dearborn Divine Child -1:02.00 21:03.10 22:05.10
Sidney Carrigan Traverse City Central -39.80 21:03.50 21:43.30
Logan Barrett Concord +36.70 21:40.60 21:03.90
Jenna Ray Grand Haven -1:21.90 21:04.30 22:26.20
Logan Vandeguchte Shepherd +1:33.20 22:37.90 21:04.70
Amelia Gouin Shepherd +2.70 21:08.70 21:06.00
Elizabeth Penrice Spring Lake +27.30 21:34.20 21:06.90
Noah Bero Manton +26.90 21:34.80 21:07.90
Lauren Butterfield Allendale -17.80 21:10.70 21:28.50
Kara Crofoot Traverse City West -12.30 21:15.80 21:28.10
Madelyn Taylor Traverse City St. Francis +5.70 21:22.30 21:16.60
Katie Schooley South Haven +17.90 21:36.30 21:18.40
Anna Aupperlee Grand Rapids Christian -33.10 21:18.80 21:51.90
Elizabeth Sible Kent City -58.50 21:20.40 22:18.90
Jillian Vera Saugatuck -33.10 21:20.80 21:53.90
Lily Francis Saugatuck +16.90 21:38.60 21:21.70
Anna Haseley Hudsonville -1:00.40 21:21.80 22:22.20
Eden Traub Grand Haven -1:25.20 21:24.20 22:49.40
Alex Erbe Mason +1:14.60 22:40.00 21:25.40
Morisa Schelich Kingsley -17.20 21:25.40 21:42.60
Angel Currie Vicksburg +18.20 21:44.00 21:25.80
Madison Grover Remus Chippewa Hills +11.70 21:37.60 21:25.90
Chloe Lohman Spring Lake -7.80 21:25.90 21:33.70
Sarah Vanderkooi Muskegon Western Michigan Christian -27.30 21:26.40 21:53.70
Ashley Oliver Parma Western +8.00 21:34.50 21:26.50
Cate Frost South Haven +2:04.60 23:34.40 21:29.80
Jacob Heyboer Grandville Calvin Christian +18.20 21:48.00 21:29.80
Ashley Witham Grand Ledge -1:51.00 21:30.30 23:21.30
Hunter Clark Manton -4.10 21:30.40 21:34.50
Elizabeth Bennett Rockford -23.10 21:34.20 21:57.30
Hanna Kroeze Grandville Calvin Christian -1:05.70 21:34.50 22:40.20
Lindsey Stone Kalamazoo Hackett -12.10 21:37.20 21:49.30
Brianna Eisenga McBain +1:57.80 23:35.10 21:37.30
Kate Witvliet Grandville Calvin Christian +1.40 21:39.70 21:38.30
Lily Robinson Leslie -15.20 21:38.50 21:53.70
Elizabeth Snow Breckenridge +2:24.90 24:03.90 21:39.00
Riley Thompson Rockford -35.40 21:39.20 22:14.60
Mary Dow Parchment +17.40 22:01.60 21:44.20
AnaLi Warners Grand Rapids Christian -49.90 21:46.20 22:36.10
Annie Knee Grand Rapids Forest Hills Northern -18.00 21:49.00 22:07.00
Jaynie Seylhower Spring Lake -1:12.50 21:50.30 23:02.80
Alicia Robertson Remus Chippewa Hills -1:15.40 21:50.30 23:05.70
Logan Slone Bangor +2:28.90 24:21.30 21:52.40
Anna Dood Grand Rapids Forest Hills Northern -21.70 21:54.80 22:16.50
Kaitlin Essig Bridgman +34.00 22:29.50 21:55.50
Sophie McQueary Saugatuck +41.50 22:37.30 21:55.80
Layla Creed Hart +1:03.40 22:59.30 21:55.90
Anna Jackson Holland Black River +2:03.60 24:00.50 21:56.90
Jacey Orr Galesburg-Augusta +1:51.80 23:49.00 21:57.20
Marion Poley Delton Kellogg +1:48.70 23:49.60 22:00.90
Emma Vandermolen Coloma +25.80 22:28.70 22:02.90
Megan Bowden Kalamazoo Hackett +2:39.10 24:43.10 22:04.00
Leah Vanorman Grand Rapids Christian -52.00 22:04.60 22:56.60
Katie Blanchard Sanford-Meridian -13.20 22:05.40 22:18.60
Kyrstyn Cieply Holland Black River -10.80 22:05.80 22:16.60
Kelsey Kehren Grand Ledge +58.10 23:04.50 22:06.40
Rachelle Brown Delton Kellogg +1:02.70 23:10.60 22:07.90
Ainsley Vanderlaan Grand Ledge +1:29.30 23:37.50 22:08.20
Maggie Holmes Spring Lake +45.00 22:56.40 22:11.40
Savannah Rogers Benzie Central -1:20.80 22:13.70 23:34.50
Grace Stockdale St. Joseph Lake Michigan Catholic +12.40 22:30.10 22:17.70
Myra Marr Breckenridge +10.90 22:30.80 22:19.90
Brittany Medcoff Leslie +1:12.60 23:34.80 22:22.20
Tori Berghuis Grand Rapids South Christian -36.80 22:22.40 22:59.20
Alexis North Sanford-Meridian -5.50 22:22.50 22:28.00
Emily Deming Shepherd +1:51.60 24:14.20 22:22.60
Katrina Beardsley Ann Arbor Pioneer -12.30 22:22.60 22:34.90
Erica Lopez Eau Claire -13.40 22:22.70 22:36.10
Arielle Melong Ann Arbor Skyline -2.00 22:23.20 22:25.20
Liza Hutchins Bloomingdale +10.70 22:34.60 22:23.90
Natalie Riksen Muskegon Western Michigan Christian +1:26.30 23:52.00 22:25.70
Sherry Dow Parchment +6.00 22:33.50 22:27.50
Taylor Volstorf Three Oaks-River Valley -42.30 22:28.20 23:10.50
Olivia Holtgren Manistee +1:03.70 23:33.40 22:29.70
Mia Brown Lansing Catholic -35.50 22:30.60 23:06.10
Adeline Hauck Lansing Catholic -1:27.10 22:33.30 24:00.40
Cecile Mallon Benzie Central -5:38.30 22:34.60 28:12.90
Ashley Zwiers Grand Rapids Christian +13.70 22:52.70 22:39.00
Carly Meulenberg Grand Rapids South Christian -15.10 22:39.30 22:54.40
Erin Norton Fremont -1:38.50 22:39.60 24:18.10
Mikaela Owen Bridgman +5.70 22:45.90 22:40.20
Carly Wade Benzie Central -1:56.70 22:47.20 24:43.90
Jade Self Hart +41.00 23:29.30 22:48.30
Maddy Wolf Grandville -3.10 22:51.90 22:55.00
Savanna Tate Bridgman -1:52.80 22:57.20 24:50.00
Andrea Taghon Benzie Central -56.30 22:59.40 23:55.70
Michelle Reinke Mt. Pleasant Sacred Heart +20.10 23:20.60 23:00.50
Ping Smith Kalamazoo Hackett -2:13.70 23:01.60 25:15.30
Faith Watson Creative Technical Academy +0.50 23:03.70 23:03.20
Abby Vitale New Buffalo -33.80 23:04.30 23:38.10
Athena Gillespie Traverse City St. Francis +48.80 23:54.80 23:06.00
Sarah Hoban Ann Arbor Gabriel Richard +1:29.60 24:41.20 23:11.60
Seeda Riddell Traverse City St. Francis +0.20 23:12.90 23:12.70
Katelyn Villa Ann Arbor Gabriel Richard -9.20 23:15.10 23:24.30
Mackenzie Mayle Breckenridge +1:22.20 24:43.20 23:21.00
Gretchen Birzer Hillsdale Academy +1:47.20 25:23.10 23:35.90
Anna Laforest Ann Arbor Gabriel Richard -18.80 23:39.40 23:58.20
Lauren Gutierrez Grand Rapids West Catholic +2:32.90 26:16.80 23:43.90
Stephanie Pitsch Middleville-Thornapple Kellogg -25.80 23:44.70 24:10.50
Khloe Pratt Saugatuck -24.00 23:45.10 24:09.10
Ellie Tone Marcellus -1.80 23:47.40 23:49.20
Jessica Peerbolte Holland Christian -7.20 23:52.90 24:00.10
Cielo Overton Eau Claire +51.80 24:46.70 23:54.90
Terra Rapp Grass Lake -36.00 23:56.20 24:32.20
Christina Berels Marine City Cardinal Mooney +2:10.40 26:12.70 24:02.30
Alexa Jackson Centreville +50.10 24:58.00 24:07.90
Whitney Paulson Traverse City St. Francis -2:00.00 24:08.30 26:08.30
Ahnaleigh Devries Grandville Calvin Christian +1:51.10 26:02.10 24:11.00
Kiera Goward Breckenridge +1:13.50 25:32.70 24:19.20
Rachel Smith Zeeland West -36.50 24:19.30 24:55.80
Alyssa Wabindato Potterville -1:03.10 24:20.80 25:23.90
Alilyn Purcell New Buffalo -48.20 24:23.90 25:12.10
Lexi Bainbridge Marcellus -1:05.90 24:24.60 25:30.50
Olivia Ludka Traverse City St. Francis +44.20 25:09.90 24:25.70
Sara Eberly New Buffalo +5:17.60 29:53.20 24:35.60
Madison Montgomery Leslie -2.50 24:36.00 24:38.50
Olivia Nelson Grandville Calvin Christian +23.20 24:59.90 24:36.70
Emma Visker Muskegon Western Michigan Christian +22.10 25:07.00 24:44.90
Jane Dunlap Kingsley +2:07.20 26:52.10 24:44.90
Sidney Wheeler Bridgman +1:54.50 26:44.60 24:50.10
Macy Adams Benzie Central -47.30 24:58.50 25:45.80
Keagan Strickland McBain +7.80 25:06.40 24:58.60
Hannah Hofstra Creative Technical Academy +1:47.90 26:53.00 25:05.10
Hayley May Bear Lake +38.70 25:44.40 25:05.70
MacKenzie Warren Bridgman +41.40 25:52.80 25:11.40
Laura Doolittle McBain -2.30 25:26.50 25:28.80
Leah Davis Big Rapids Crossroads Charter +1:54.30 27:22.20 25:27.90
Bridney Galindo Hart -1:55.00 25:41.00 27:36.00
Aleayah Herlein Manton -1:42.30 25:46.30 27:28.60
Jahayza Choat Leslie -1:45.90 25:54.10 27:40.00
Grace Okros Benzie Central -2:11.60 26:14.40 28:26.00
Solina Robles Leslie +5:53.70 32:27.60 26:33.90
Ainsley Webb Centreville -5.30 26:35.70 26:41.00
Tristyn Creed Hart +40.00 27:26.10 26:46.10
Sydney Baugh Lawton +1:56.50 29:08.70 27:12.20
Meagan Herlein Constantine -5.90 27:24.10 27:30.00